Angel Fire, NM

6:22 AM MST on December 08, 2019 (GMT -0700)
Angel Fire

Weather History for KAXX - October, 2019

Change the Weather History Date:

Thursday, October 31, 2019

  Actual Average (KSKX) Record (KSKX)
Temperature  
Mean Temperature 24 °F -  
Max Temperature 48 °F 53 °F 71 °F (2008)
Min Temperature 0 °F 24 °F 17 °F (2004)
Degree Days  
Heating Degree Days 41    
Moisture  
Dew Point 1 °F    
Average Humidity 44    
Maximum Humidity 83    
Minimum Humidity 12    
Precipitation  
Precipitation 0.00 in - - ()
Sea Level Pressure  
Sea Level Pressure 30.31 in    
Wind  
Wind Speed 4 mph (WSW)    
Max Wind Speed 14 mph    
Max Gust Speed -    
Visibility 10 miles    
Events      
Averages and records for this station are not official NWS values.
T = Trace of Precipitation, MM = Missing Value Source: NWS Daily Summary

Daily Weather History Graph

Daily Weather History Graph

Search for Another Location

Airport or City:

Astronomy

Oct. 31, 2019 Rise Set
Actual Time 7:23 AM MDT 6:05 PM MDT
Civil Twilight 6:56 AM MDT 6:32 PM MDT
Nautical Twilight 6:26 AM MDT 7:02 PM MDT
Astronomical Twilight 5:56 AM MDT 7:32 PM MDT
Moon 11:09 AM MDT (10/31) 9:09 PM MDT (10/31)
Length of Visible Light 11h 35m
Length of Day
10h 42m
Waxing Crescent, 16% of the Moon is Illuminated
Oct 31
Waxing Crescent
Nov 4
First Quarter
Nov 12
Full
Nov 19
Last Quarter
Nov 26
New

Hourly Weather History & Observations

Time (MDT) Temp. Windchill Dew Point Humidity Pressure Visibility Wind Dir Wind Speed Gust Speed Precip Events Conditions
12:15 AM 12.0 °F - -3.8 °F 49% 30.28 in 10.0 mi Calm Calm - N/A   Clear
12:35 AM 8.6 °F 0.1 °F -3.3 °F 59% 30.28 in 10.0 mi NNW 4.6 mph - N/A   Clear
12:55 AM 6.8 °F - -2.9 °F 64% 30.28 in 10.0 mi Calm Calm - N/A   Clear
1:15 AM 6.1 °F - -2.4 °F 68% 30.29 in 10.0 mi Calm Calm - N/A   Clear
1:35 AM 4.1 °F - -3.8 °F 70% 30.30 in 10.0 mi Calm Calm - N/A   Clear
1:55 AM 4.8 °F -4.3 °F -3.5 °F 69% 30.31 in 10.0 mi West 4.6 mph - N/A   Clear
2:15 AM 5.2 °F - -2.9 °F 69% 30.31 in 10.0 mi Calm Calm - N/A   Clear
2:55 AM 7.9 °F - -3.5 °F 60% 30.32 in 10.0 mi Calm Calm - N/A   Clear
3:15 AM 8.4 °F - -3.6 °F 58% 30.32 in 10.0 mi Calm Calm - N/A   Clear
3:35 AM 11.3 °F -0.4 °F -4.0 °F 50% 30.32 in 10.0 mi West 8.1 mph - N/A   Clear
3:55 AM 10.9 °F 4.7 °F -4.2 °F 51% 30.32 in 10.0 mi South 3.5 mph - N/A   Clear
4:15 AM 8.2 °F 1.6 °F -4.2 °F 57% 30.32 in 10.0 mi SW 3.5 mph - N/A   Clear
4:35 AM 12.2 °F -1.0 °F -5.1 °F 46% 30.32 in 10.0 mi West 10.4 mph - N/A   Clear
4:55 AM 12.7 °F -1.8 °F -5.4 °F 44% 30.32 in 10.0 mi West 12.7 mph - N/A   Clear
5:15 AM 12.7 °F 0.4 °F -5.6 °F 44% 30.32 in 10.0 mi West 9.2 mph - N/A   Clear
5:35 AM 10.6 °F 1.0 °F -5.6 °F 48% 30.33 in 10.0 mi West 5.8 mph - N/A   Clear
5:55 AM 8.1 °F 1.4 °F -4.5 °F 57% 30.34 in 10.0 mi North 3.5 mph - N/A   Clear
6:15 AM 4.3 °F - -3.6 °F 70% 30.34 in 10.0 mi Calm Calm - N/A   Clear
6:35 AM 3.6 °F - -2.9 °F 74% 30.34 in 10.0 mi Calm Calm - N/A   Clear
6:55 AM 1.4 °F - -4.5 °F 76% 30.35 in 10.0 mi Calm Calm - N/A   Clear
7:15 AM -0.0 °F - -5.3 °F 79% 30.35 in 10.0 mi Calm Calm - N/A   Clear
7:35 AM 3.0 °F -8.0 °F -2.0 °F 80% 30.35 in 10.0 mi NNE 5.8 mph - N/A   Clear
7:55 AM 3.2 °F -6.2 °F -1.7 °F 80% 30.36 in 10.0 mi ENE 4.6 mph - N/A   Clear
8:15 AM 7.2 °F -1.5 °F 3.0 °F 83% 30.37 in 10.0 mi NE 4.6 mph - N/A   Clear
8:35 AM 9.9 °F - 5.0 °F 81% 30.37 in 10.0 mi Calm Calm - N/A   Clear
8:55 AM 13.6 °F 4.6 °F 4.5 °F 67% 30.38 in 10.0 mi NNE 5.8 mph - N/A   Clear
9:15 AM 15.8 °F 6.1 °F 4.8 °F 62% 30.38 in 10.0 mi NE 6.9 mph - N/A   Clear
9:35 AM 18.3 °F 9.1 °F 4.8 °F 56% 30.38 in 10.0 mi NE 6.9 mph - N/A   Clear
9:55 AM 20.5 °F 10.8 °F 3.4 °F 48% 30.37 in 10.0 mi NE 8.1 mph - N/A   Clear
10:15 AM 23.5 °F 17.6 °F 3.6 °F 42% 30.37 in 10.0 mi NNE 4.6 mph - N/A   Clear
10:35 AM 27.0 °F 21.6 °F 3.4 °F 37% 30.36 in 10.0 mi NNE 4.6 mph - N/A   Clear
10:55 AM 31.3 °F 25.6 °F 3.7 °F 31% 30.36 in 10.0 mi NE 5.8 mph - N/A   Clear
11:15 AM 35.1 °F 29.3 °F 1.6 °F 24% 30.35 in 10.0 mi ENE 6.9 mph - N/A   Clear
11:35 AM 37.6 °F - -2.4 °F 18% 30.34 in 10.0 mi Calm Calm - N/A   Clear
11:55 AM 39.2 °F - -1.7 °F 18% 30.33 in 10.0 mi Calm Calm - N/A   Clear
12:15 PM 40.3 °F 36.3 °F 5.2 °F 23% 30.33 in 10.0 mi NW 5.8 mph - N/A   Clear
12:35 PM 43.0 °F 39.5 °F 5.7 °F 22% 30.31 in 10.0 mi NNE 5.8 mph - N/A   Clear
12:55 PM 44.1 °F 40.8 °F 3.7 °F 19% 30.30 in 10.0 mi NNE 5.8 mph - N/A   Clear
1:15 PM 46.6 °F - -1.5 °F 14% 30.29 in 10.0 mi West 5.8 mph - N/A   Clear
1:35 PM 47.7 °F - 0.1 °F 14% 30.28 in 10.0 mi West 9.2 mph - N/A   Clear
1:55 PM 48.2 °F - 1.9 °F 15% 30.27 in 10.0 mi WSW 11.5 mph - N/A   Clear
2:15 PM 47.7 °F - 2.3 °F 16% 30.27 in 10.0 mi WSW 13.8 mph - N/A   Clear
2:35 PM 47.7 °F - 1.6 °F 15% 30.27 in 10.0 mi WSW 11.5 mph - N/A   Clear
2:55 PM 47.8 °F - 1.2 °F 15% 30.27 in 10.0 mi WSW 13.8 mph - N/A   Clear
3:15 PM 47.7 °F - 0.5 °F 14% 30.27 in 10.0 mi West 13.8 mph - N/A   Clear
3:35 PM 47.5 °F - 0.1 °F 14% 30.28 in 10.0 mi West 12.7 mph - N/A   Clear
3:55 PM 47.1 °F - -0.4 °F 14% 30.28 in 10.0 mi West 12.7 mph - N/A   Clear
4:15 PM 45.9 °F 40.4 °F -2.9 °F 13% 30.28 in 10.0 mi West 11.5 mph - N/A   Clear
4:35 PM 45.1 °F 40.8 °F -4.9 °F 12% 30.28 in 10.0 mi WNW 8.1 mph - N/A   Clear
4:55 PM 44.6 °F 41.4 °F -3.3 °F 13% 30.28 in 10.0 mi WNW 5.8 mph - N/A   Clear
5:15 PM 43.5 °F - -2.4 °F 15% 30.27 in 10.0 mi Calm Calm - N/A   Clear
5:35 PM 42.1 °F 40.2 °F -1.3 °F 16% 30.27 in 10.0 mi SW 3.5 mph - N/A   Clear
5:55 PM 36.7 °F 34.1 °F -1.3 °F 20% 30.27 in 10.0 mi West 3.5 mph - N/A   Clear
6:15 PM 33.8 °F 27.7 °F 1.0 °F 25% 30.27 in 10.0 mi West 6.9 mph - N/A   Clear
6:35 PM 32.7 °F 25.0 °F 1.2 °F 26% 30.28 in 10.0 mi WSW 9.2 mph - N/A   Clear
6:55 PM 34.2 °F - -2.2 °F 21% 30.29 in 10.0 mi Calm Calm - N/A   Clear
7:15 PM 32.4 °F 29.1 °F 3.4 °F 29% 30.29 in 10.0 mi SSW 3.5 mph - N/A   Clear
7:35 PM 33.4 °F 29.1 °F 1.2 °F 26% 30.29 in 10.0 mi SSE 4.6 mph - N/A   Clear
7:55 PM 25.3 °F 21.1 °F 10.8 °F 54% 30.29 in 10.0 mi SSE 3.5 mph - N/A   Clear
8:10 PM 26.1 °F 19.4 °F 10.2 °F 51% 30.29 in 10.0 mi South 5.8 mph - N/A   Clear
8:35 PM 21.7 °F 15.5 °F 9.9 °F 60% 30.29 in 10.0 mi SE 4.6 mph - N/A   Clear
8:55 PM 24.3 °F 18.4 °F 9.1 °F 53% 30.29 in 10.0 mi South 4.6 mph - N/A   Clear
9:15 PM 22.1 °F 14.7 °F 8.4 °F 56% 30.29 in 10.0 mi South 5.8 mph - N/A   Clear
9:35 PM 21.0 °F - 9.1 °F 60% 30.29 in 10.0 mi Calm Calm - N/A   Clear
9:55 PM 21.2 °F - 8.6 °F 58% 30.29 in 10.0 mi Calm Calm - N/A   Clear
10:15 PM 21.2 °F 14.9 °F 9.7 °F 61% 30.29 in 10.0 mi SSW 4.6 mph - N/A   Clear
10:35 PM 19.9 °F 13.4 °F 8.4 °F 61% 30.29 in 10.0 mi South 4.6 mph - N/A   Clear
10:55 PM 20.7 °F 11.0 °F 9.1 °F 61% 30.29 in 10.0 mi South 8.1 mph - N/A   Clear
11:15 PM 22.5 °F 14.1 °F 7.5 °F 53% 30.28 in 10.0 mi South 6.9 mph - N/A   Clear
11:35 PM 23.2 °F 12.6 °F 5.5 °F 47% 30.27 in 10.0 mi South 10.4 mph - N/A   Clear
11:55 PM 20.8 °F 9.0 °F 7.9 °F 57% 30.27 in 10.0 mi South 11.5 mph - N/A   Clear